Cut Bank, MT

11:35 PM MDT on October 20, 2019 (GMT -0600)
Cut Bank Municipal

Weather History for KCTB - August, 2019

Change the Weather History Date:

Thursday, August 15, 2019

  Actual Average Record
Temperature  
Mean Temperature 62 °F 64 °F  
Max Temperature 79 °F 80 °F 95 °F (1961)
Min Temperature 45 °F 49 °F 33 °F (1935)
Degree Days  
Heating Degree Days 3 3  
Month to date heating degree days 27 36  
Since 1 June heating degree days 342 355  
Since 1 July heating degree days 120 122  
Cooling Degree Days 0 2  
Month to date cooling degree days 42 43  
Year to date cooling degree days 95 132  
Since 1 June cooling degree days 95 130  
Growing Degree Days 12 (Base 50)    
Moisture  
Dew Point 41 °F    
Average Humidity 54    
Maximum Humidity 83    
Minimum Humidity 23    
Precipitation  
Precipitation 0.00 in 0.04 in 2.35 in (1968)
Month to date precipitation 0.90 0.55  
Year to date precipitation 8.31 8.02  
Snow  
Snow - - - ()
Snow Depth 0.00 in    
Sea Level Pressure  
Sea Level Pressure 30.00 in    
Wind  
Wind Speed 5 mph ()    
Max Wind Speed 21 mph    
Max Gust Speed 32 mph    
Visibility 10.0 miles    
Events      
T = Trace of Precipitation, MM = Missing Value Source: Averaged Metar Reports

Daily Weather History Graph

Daily Weather History Graph

Search for Another Location

Airport or City:

Astronomy

Aug. 15, 2019 Rise Set
Actual Time 6:22 AM MDT 8:44 PM MDT
Civil Twilight 5:47 AM MDT 9:19 PM MDT
Nautical Twilight 5:04 AM MDT 10:02 PM MDT
Astronomical Twilight 4:14 AM MDT 10:52 PM MDT
Moon 9:16 PM MDT (8/15) 6:16 AM MDT (8/15)
Length of Visible Light 15h 31m
Length of Day
14h 21m
Full, 100% of the Moon is Illuminated
Aug 15
Full
Aug 23
Last Quarter
Aug 30
New
Sep 5
First Quarter
Sep 13
Full

Hourly Weather History & Observations

Time (MDT) Temp. Windchill Dew Point Humidity Pressure Visibility Wind Dir Wind Speed Gust Speed Precip Events Conditions
12:56 AM 53.1 °F - 46.0 °F 77% 30.06 in 10.0 mi NE 3.5 mph - N/A   Clear
1:56 AM 50.0 °F - 45.0 °F 83% 30.06 in 10.0 mi NNW 4.6 mph - N/A   Clear
2:56 AM 48.9 °F - 44.1 °F 83% 30.05 in 10.0 mi West 8.1 mph - N/A   Clear
3:56 AM 48.0 °F - 42.1 °F 80% 30.05 in 10.0 mi WNW 5.8 mph - N/A   Clear
4:56 AM 46.0 °F 43.1 °F 41.0 °F 83% 30.07 in 10.0 mi NNE 5.8 mph - N/A   Clear
5:56 AM 48.9 °F - 41.0 °F 74% 30.07 in 10.0 mi West 5.8 mph - N/A   Clear
6:56 AM 48.0 °F - 42.1 °F 80% 30.08 in 10.0 mi WSW 6.9 mph - N/A   Clear
7:56 AM 55.0 °F - 45.0 °F 69% 30.08 in 10.0 mi WNW 3.5 mph - N/A   Clear
8:56 AM 61.0 °F - 46.0 °F 58% 30.06 in 10.0 mi West 5.8 mph - N/A   Clear
9:56 AM 66.9 °F - 42.1 °F 40% 30.05 in 10.0 mi NNW 5.8 mph - N/A   Clear
10:56 AM 70.0 °F - 42.1 °F 36% 30.04 in 10.0 mi NNW 6.9 mph - N/A   Clear
11:56 AM 72.0 °F - 39.0 °F 30% 30.02 in 10.0 mi Calm Calm - N/A   Clear
12:56 PM 73.9 °F - 37.9 °F 27% 30.00 in 10.0 mi Calm Calm - N/A   Clear
1:56 PM 75.9 °F - 37.9 °F 25% 29.98 in 10.0 mi NW 9.2 mph - N/A   Mostly Cloudy
5:56 PM 75.9 °F - 35.1 °F 23% 29.92 in 10.0 mi WNW 11.5 mph - N/A   Clear
6:56 PM 75.0 °F - 37.9 °F 26% 29.90 in 10.0 mi WNW 11.5 mph - N/A   Clear
7:56 PM 72.0 °F - 39.9 °F 31% 29.88 in 10.0 mi West 9.2 mph - N/A   Partly Cloudy
8:56 PM 63.0 °F - 43.0 °F 48% 29.89 in 10.0 mi WNW 8.1 mph - N/A   Clear
9:56 PM 60.1 °F - 41.0 °F 49% 29.89 in 10.0 mi WNW 10.4 mph - N/A   Clear
10:56 PM 60.1 °F - 41.0 °F 49% 29.88 in 10.0 mi West 11.5 mph - N/A   Clear
11:56 PM 55.0 °F - 42.1 °F 62% 29.87 in 10.0 mi West 5.8 mph - N/A   Clear